[[{"header":{"parameterUnit":"m.s-1","parameterCategory":1,"la1":30.2991,"la2":30.254,"lo1":-89.0895,"lo2":-89.0444,"dy":0.0017,"dx":0.0017,"nx":28,"ny":28,"refTime":"2025-02-28T09:00:00:Z","depth":0,"parameterNumber":2,"parameterNumberName":"U-component_of_WINDS"},"data":[0,0,0,0,0,0,0,0,0,0,0,0,0,0,0,0,0,0,0,0,0,0,0,0,0,0,0,0,0,0,0,0,0,0,0,0,0,0,0,0,0,0,0,0,0,0,0,0,0,0,0,0,0,0,0,0,0,0,-2.0254,-2.0255,0,-2.0351,-2.0352,-2.0353,-2.0322,-2.032,-2.0318,-2.0316,-2.0415,-2.0419,-2.0424,0,0,0,0,0,0,0,0,0,0,0,0,0,-2.0042,-2.0046,-2.0254,-2.0256,-2.0257,-2.0351,-2.0352,-2.0353,-2.0322,-2.032,-2.0317,-2.0315,-2.0413,-2.0419,-2.0424,0,0,0,0,0,0,0,0,0,0,0,0,0,-2.0136,-2.0048,-2.0254,-2.0253,-2.0253,-2.035,-2.0352,-2.0354,-2.0323,-2.032,-2.0317,-2.0314,-2.0411,-2.0418,-2.0425,-2.0529,0,0,-2.0446,-2.0449,0,0,0,0,0,0,0,0,-2.0131,-2.0144,-2.0252,-2.0253,-2.0254,-2.0321,-2.0313,-2.0412,-2.0324,-2.0297,-2.0316,-2.0312,-2.0386,-2.0395,-2.042,-2.0534,-2.0538,-2.0446,-2.045,-2.0453,-2.0455,0,0,0,0,0,0,0,-2.0124,-2.014,-2.0292,-2.0253,-2.0255,-2.0247,-2.0257,-2.0332,-2.0358,-2.0299,-2.0297,-2.0309,-2.0386,-2.0413,-2.0422,-2.0539,-2.0446,-2.0452,-2.0456,-2.0459,-2.0743,-2.0746,0,0,0,0,0,0,-2.0117,-2.0134,-2.0289,-2.0295,-2.0184,-2.0253,-2.0264,-2.0303,-2.0357,-2.0362,-2.0311,-2.0307,-2.0403,-2.0414,-2.0425,-2.0551,-2.0453,-2.046,-2.0464,-2.074,-2.0744,-2.0748,0,0,0,0,0,0,-2.0113,-2.0131,-2.0286,-2.0214,-2.0233,-2.026,-2.0304,-2.0306,-2.0333,-2.0366,-2.037,-2.0334,-2.0401,-2.0416,-2.0503,-2.0554,-2.0463,-2.0469,-2.0736,-2.0741,-2.0746,-2.0804,0,0,0,0,0,0,-2.0107,-2.013,-2.017,-2.0216,-2.0237,-2.0363,-2.0307,-2.031,-2.0345,-2.0341,-2.0389,-2.0394,-2.04,-2.0493,-2.051,-2.0562,-2.0474,-2.0731,-2.0738,-2.0744,-2.0798,-2.0811,-2.0822,0,0,0,0,0,-2.0099,-2.0183,-2.0173,-2.0191,-2.0288,-2.0366,-2.0378,-2.0383,-2.035,-2.039,-2.0411,-2.0392,-2.0545,-2.0503,-2.0521,-2.0576,-2.0728,-2.0736,-2.0744,-2.0793,-2.0808,-2.0822,0,0,0,0,0,0,-2.0143,-2.0189,-2.0178,-2.0278,-2.0318,-2.036,-2.0412,-2.04,-2.045,-2.0444,-2.0448,-2.0459,-2.0549,-2.0571,-2.0522,-2.0679,-2.0632,-2.0644,-2.0663,-2.0678,-2.0689,-2.0683,-2.048,0,0,0,0,0,-2.0164,-2.0224,-2.026,-2.0345,-2.0366,-2.0385,-2.0419,-2.042,-2.0461,-2.0478,-2.0505,-2.0546,-2.0604,-2.0641,-2.0696,-2.08,-2.081,-2.0847,-2.0858,-2.0868,-2.0879,-2.0936,-2.0953,-2.0773,-2.0773,-2.0773,0,0,-2.0209,-2.0241,-2.0279,-2.0355,-2.0386,-2.0447,-2.04,-2.0467,-2.0512,-2.0488,-2.0574,-2.0594,-2.064,-2.0737,-2.0781,-2.0758,-2.0931,-2.0878,-2.0885,-2.0891,-2.0946,-2.0963,-2.0978,-2.0778,-2.0778,-2.0777,0,0,-2.0322,-2.0352,-2.0427,-2.0459,-2.0506,-2.0519,-2.0536,-2.058,-2.0593,-2.0678,-2.0662,-2.0715,-2.0814,-2.0847,-2.0877,-2.1002,-2.0987,-2.1019,-2.1082,-2.1138,-2.1152,-2.1165,-2.121,-2.1226,-2.1029,-2.1029,-2.1029,0,-2.0372,-2.0464,-2.0467,-2.0535,-2.0569,-2.055,-2.0625,-2.0656,-2.0719,-2.0743,-2.0716,-2.0839,-2.0868,-2.0973,-2.1003,-2.1027,-2.1048,-2.1015,-2.115,-2.1162,-2.1174,-2.1218,-2.1235,-2.1033,-2.1033,-2.1032,-2.1032,0,-2.0524,-2.0588,-2.0642,-2.0704,-2.0743,-2.0815,-2.0828,-2.0868,-2.0864,-2.0879,-2.0966,-2.1,-2.1061,-2.1085,-2.1082,-2.1189,-2.1174,-2.1148,-2.1101,-2.1195,-2.1236,-2.1253,-2.1039,-2.1037,-2.1036,-2.1035,0,0,-2.067,-2.073,-2.0751,-2.0778,-2.0829,-2.0878,-2.0948,-2.1008,-2.1043,-2.1086,-2.1145,-2.1228,-2.1205,-2.1239,-2.1239,-2.1287,-2.1385,-2.1256,-2.1257,-2.128,-2.1506,-2.1526,-2.1546,-2.1374,-2.1377,-2.138,-2.1502,0,-2.0789,-2.0913,-2.0917,-2.103,-2.109,-2.1071,-2.1132,-2.1169,-2.1184,-2.1236,-2.1252,-2.1312,-2.1276,-2.1296,-2.1343,-2.1363,-2.143,-2.1354,-2.143,-2.1433,-2.1422,-2.1567,-2.1589,-2.1703,-2.1518,-2.1521,-2.1523,0,-2.0945,-2.0993,-2.1113,-2.1154,-2.1179,-2.1235,-2.129,-2.1339,-2.1381,-2.1388,-2.1426,-2.1418,-2.149,-2.1438,-2.1536,-2.1484,-2.1515,-2.1529,-2.1534,-2.1543,-2.1485,-2.1582,-2.174,-2.1758,-2.1548,-2.1546,-2.1544,0,-2.1041,-2.1136,-2.122,-2.1244,-2.1294,-2.1333,-2.1356,-2.1394,-2.143,-2.1477,-2.15,-2.1555,-2.1586,-2.1628,-2.1636,-2.1597,-2.1735,-2.1684,-2.1744,-2.1744,-2.1776,-2.1774,-2.1943,-2.1792,-2.1792,-2.1792,-2.1791,0,-2.1175,-2.1249,-2.1264,-2.1316,-2.1399,-2.1401,-2.1483,-2.1502,-2.1536,-2.1591,-2.1577,-2.1629,-2.1635,-2.1688,-2.1694,-2.1775,-2.1788,-2.1797,-2.1798,-2.18,-2.1799,-2.1822,-2.1815,-2.1796,-2.1795,-2.1794,-2.1793,0,-2.1298,-2.1311,-2.1402,-2.1441,-2.1453,-2.1512,-2.1546,-2.1595,-2.1608,-2.1678,-2.1694,-2.1715,-2.1777,-2.1787,-2.186,-2.1864,-2.1962,-2.1954,-2.1948,-2.1948,-2.2008,-2.2003,-2.22,-2.2226,-2.2056,-2.2057,-2.2059,0,-2.1384,-2.1441,-2.1486,-2.1522,-2.1547,-2.1605,-2.1641,-2.1645,-2.1683,-2.1734,-2.1777,-2.1838,-2.1887,-2.1986,-2.2007,-2.2063,-2.2057,-2.2122,-2.2066,-2.2065,-2.206,-2.2058,-2.2064,-2.2134,-2.2136,-2.2137,-2.2138,0,-2.1535,-2.1538,-2.1591,-2.1647,-2.169,-2.1734,-2.1775,-2.1805,-2.1814,-2.1857,-2.1921,-2.1958,-2.2032,-2.2093,-2.2148,-2.217,-2.2157,-2.2155,-2.2173,-2.2176,-2.2171,-2.2176,-2.198,-2.2152,-2.215,-2.2149,-2.2149,-2.2148,-2.1643,-2.1693,-2.1733,-2.1792,-2.1823,-2.1862,-2.1911,-2.1929,-2.1982,-2.2043,-2.2042,-2.2111,-2.215,-2.2222,-2.2248,-2.2303,-2.2282,-2.2306,-2.2313,-2.232,-2.2326,-2.2161,-2.2312,-2.2312,-2.2312,-2.2311,-2.2311,0,-2.1796,-2.182,-2.1874,-2.1932,-2.1979,-2.196,-2.2004,-2.2045,-2.2106,-2.2144,-2.2192,-2.2264,-2.2322,-2.2347,-2.2404,-2.2443,-2.2438,-2.2458,-2.2456,-2.2462,-2.2341,-2.2321,-2.2461,-2.2461,-2.2461,-2.2461,-2.2461,-2.2461,-2.188,-2.1964,-2.1972,-2.207,-2.2094,-2.2162,-2.2189,-2.2224,-2.2254,-2.2336,-2.2384,-2.24,-2.2432,-2.2491,-2.2544,-2.2549,-2.2572,-2.2595,-2.2598,-2.2485,-2.247,-2.2456,-2.2437,-2.2599,-2.26,-2.2715,-2.2716,-2.2717]},{"header":{"parameterUnit":"m.s-1","parameterCategory":1,"la1":30.2991,"la2":30.254,"lo1":-89.0895,"lo2":-89.0444,"dy":0.0017,"dx":0.0017,"nx":28,"ny":28,"refTime":"2025-02-28T09:00:00:Z","depth":0,"parameterNumber":3,"parameterNumberName":"V-component_of_WINDS"},"data":[0,0,0,0,0,0,0,0,0,0,0,0,0,0,0,0,0,0,0,0,0,0,0,0,0,0,0,0,0,0,0,0,0,0,0,0,0,0,0,0,0,0,0,0,0,0,0,0,0,0,0,0,0,0,0,0,0,0,-6.8344,-6.8346,0,-6.8564,-6.8567,-6.8569,-6.8547,-6.8543,-6.854,-6.8537,-6.8756,-6.8765,-6.8774,0,0,0,0,0,0,0,0,0,0,0,0,0,-6.7897,-6.7905,-6.8343,-6.8346,-6.8349,-6.8564,-6.8567,-6.857,-6.8547,-6.8543,-6.8539,-6.8535,-6.8753,-6.8764,-6.8774,0,0,0,0,0,0,0,0,0,0,0,0,0,-6.8101,-6.7908,-6.8343,-6.8364,-6.8368,-6.8563,-6.8567,-6.857,-6.8548,-6.8543,-6.8538,-6.8533,-6.8749,-6.8763,-6.8776,-6.8963,0,0,-6.8817,-6.8823,0,0,0,0,0,0,0,0,-6.809,-6.8118,-6.8358,-6.8363,-6.8368,-6.8523,-6.849,-6.8702,-6.855,-6.848,-6.8537,-6.8531,-6.8682,-6.8701,-6.8753,-6.8973,-6.8982,-6.8819,-6.8827,-6.8833,-6.8836,0,0,0,0,0,0,0,-6.8075,-6.8108,-6.843,-6.8361,-6.8367,-6.836,-6.8383,-6.853,-6.8607,-6.8485,-6.8484,-6.8511,-6.8684,-6.874,-6.8758,-6.8985,-6.8818,-6.883,-6.8839,-6.8844,-6.9369,-6.9375,0,0,0,0,0,0,-6.8057,-6.8096,-6.8423,-6.8437,-6.8213,-6.8372,-6.8399,-6.8478,-6.8605,-6.862,-6.8515,-6.8509,-6.872,-6.8742,-6.8766,-6.8994,-6.8833,-6.8845,-6.8853,-6.9363,-6.937,-6.9377,0,0,0,0,0,0,-6.8048,-6.8087,-6.8414,-6.8267,-6.8308,-6.8386,-6.8475,-6.8485,-6.8542,-6.8628,-6.8641,-6.8559,-6.8717,-6.8747,-6.8914,-6.9001,-6.8851,-6.8864,-6.9356,-6.9365,-6.9373,-6.945,0,0,0,0,0,0,-6.8035,-6.8083,-6.8157,-6.8268,-6.8316,-6.8562,-6.848,-6.8493,-6.8566,-6.856,-6.8673,-6.8686,-6.8715,-6.8894,-6.8928,-6.9017,-6.8874,-6.9349,-6.936,-6.9371,-6.944,-6.946,-6.9477,0,0,0,0,0,-6.8019,-6.8168,-6.816,-6.82,-6.8409,-6.8567,-6.8593,-6.8625,-6.8573,-6.8647,-6.8702,-6.8683,-6.8986,-6.8912,-6.8949,-6.9043,-6.9344,-6.9357,-6.937,-6.9431,-6.9456,-6.9477,0,0,0,0,0,0,-6.8062,-6.8183,-6.8176,-6.8366,-6.8456,-6.8563,-6.8656,-6.865,-6.8756,-6.8746,-6.8778,-6.8804,-6.8973,-6.9024,-6.894,-6.9231,-6.9157,-6.9179,-6.9191,-6.9215,-6.9234,-6.9218,-6.8886,0,0,0,0,0,-6.8093,-6.8213,-6.8311,-6.8469,-6.8515,-6.8578,-6.8648,-6.8664,-6.8759,-6.8796,-6.8864,-6.8954,-6.907,-6.9145,-6.9256,-6.9447,-6.9471,-6.953,-6.9548,-6.9563,-6.9582,-6.9686,-6.9714,-6.942,-6.942,-6.9419,0,0,-6.8159,-6.824,-6.8314,-6.848,-6.8552,-6.8674,-6.861,-6.8741,-6.8832,-6.8815,-6.8979,-6.9031,-6.9134,-6.9314,-6.9397,-6.9363,-6.9668,-6.958,-6.9591,-6.9602,-6.9703,-6.973,-6.9755,-6.9429,-6.9427,-6.9425,0,0,-6.8343,-6.8416,-6.8556,-6.8631,-6.8741,-6.8782,-6.8816,-6.8924,-6.8959,-6.9124,-6.9114,-6.922,-6.9419,-6.9493,-6.9556,-6.9768,-6.9754,-6.9802,-6.99,-7.0002,-7.0025,-7.0046,-7.0122,-7.0149,-6.982,-6.982,-6.982,0,-6.8411,-6.8596,-6.8628,-6.8762,-6.8835,-6.8828,-6.8969,-6.9039,-6.9179,-6.9229,-6.9189,-6.9438,-6.9507,-6.9704,-6.9756,-6.9808,-6.9846,-6.9791,-7.002,-7.0041,-7.0061,-7.0134,-7.0162,-6.9826,-6.9825,-6.9824,-6.9824,0,-6.8674,-6.8802,-6.8902,-6.9041,-6.9125,-6.9261,-6.9313,-6.9393,-6.9402,-6.9447,-6.9614,-6.9696,-6.9824,-6.9872,-6.9881,-7.0071,-7.0046,-7.0013,-6.994,-7.0094,-7.0163,-7.0191,-6.9833,-6.9831,-6.983,-6.9828,0,0,-6.8891,-6.9047,-6.9083,-6.9146,-6.9268,-6.9367,-6.9502,-6.963,-6.9698,-6.9795,-6.9909,-7.0077,-7.0047,-7.0119,-7.0136,-7.0225,-7.0388,-7.0181,-7.0184,-7.0217,-7.0603,-7.0629,-7.066,-7.038,-7.0385,-7.0389,-7.0595,0,-6.9087,-6.9331,-6.9364,-6.9578,-6.9696,-6.9691,-6.9809,-6.9895,-6.994,-7.0046,-7.0094,-7.0213,-7.0164,-7.0208,-7.0296,-7.035,-7.0466,-7.0335,-7.0485,-7.049,-7.0461,-7.0696,-7.0724,-7.0914,-7.0622,-7.0626,-7.063,0,-6.9349,-6.9456,-6.9683,-6.9789,-6.984,-6.9946,-7.0066,-7.0167,-7.0264,-7.029,-7.0372,-7.0378,-7.0516,-7.0437,-7.0627,-7.0537,-7.06,-7.0635,-7.0643,-7.0659,-7.057,-7.0719,-7.0975,-7.1004,-7.0672,-7.0669,-7.0666,0,-6.9486,-6.9686,-6.9848,-6.9902,-7.003,-7.0104,-7.0161,-7.0253,-7.0328,-7.0431,-7.0479,-7.0596,-7.0661,-7.075,-7.0787,-7.0726,-7.0975,-7.0899,-7.1,-7.1,-7.1054,-7.105,-7.1324,-7.1093,-7.1092,-7.1092,-7.1091,0,-6.9703,-6.9842,-6.9912,-7.0011,-7.0167,-7.0202,-7.0354,-7.0407,-7.0489,-7.0598,-7.0598,-7.07,-7.0742,-7.0849,-7.0878,-7.1032,-7.106,-7.1084,-7.109,-7.1085,-7.1082,-7.1127,-7.1115,-7.1099,-7.1098,-7.1096,-7.1095,0,-6.9882,-6.9935,-7.0111,-7.0218,-7.0248,-7.0358,-7.0449,-7.0544,-7.0588,-7.0725,-7.0759,-7.0827,-7.0953,-7.0999,-7.1151,-7.1171,-7.1349,-7.1344,-7.1317,-7.1319,-7.1418,-7.1409,-7.1732,-7.1776,-7.1514,-7.1516,-7.1519,0,-7.0018,-7.0125,-7.0244,-7.0318,-7.0378,-7.0497,-7.0574,-7.0612,-7.0691,-7.081,-7.0891,-7.1018,-7.1121,-7.1323,-7.1384,-7.1501,-7.1499,-7.1604,-7.1516,-7.1508,-7.1501,-7.1495,-7.1506,-7.162,-7.1623,-7.1625,-7.1627,0,-7.0253,-7.0274,-7.0386,-7.0507,-7.06,-7.0696,-7.079,-7.085,-7.0901,-7.099,-7.1121,-7.1202,-7.1359,-7.1484,-7.1604,-7.1658,-7.1652,-7.1654,-7.1684,-7.168,-7.1661,-7.1673,-7.1363,-7.1647,-7.1645,-7.1643,-7.1642,-7.1641,-7.0415,-7.0511,-7.061,-7.0735,-7.081,-7.0897,-7.0993,-7.1049,-7.116,-7.1293,-7.1308,-7.1448,-7.1541,-7.1702,-7.1763,-7.1872,-7.1843,-7.1886,-7.1897,-7.1907,-7.1915,-7.1643,-7.1893,-7.1893,-7.1892,-7.1892,-7.1892,0,-7.0651,-7.0715,-7.0829,-7.0962,-7.106,-7.1046,-7.1149,-7.1231,-7.1356,-7.1445,-7.1547,-7.1697,-7.1818,-7.189,-7.2011,-7.2084,-7.2084,-7.2115,-7.211,-7.2123,-7.1933,-7.1896,-7.2113,-7.2113,-7.2113,-7.2113,-7.2113,-7.2113,-7.0786,-7.0947,-7.0979,-7.1177,-7.1239,-7.1379,-7.1439,-7.152,-7.1591,-7.1759,-7.1861,-7.1908,-7.1989,-7.2117,-7.2227,-7.2244,-7.2289,-7.2323,-7.2338,-7.2159,-7.2137,-7.2115,-7.208,-7.2332,-7.2332,-7.2519,-7.252,-7.2522]}]]